Regional Weather Roundup
Issued by NWS Albany, NY

Home | Current Version | Previous Version | Text Only | Print | Product List | Glossary On
Versions: 1 2 3 4 5 6 7 8 9 10 11 12 13 14 15 16 17 18 19 20 21 22 23 24 25 26 27 28 29 30 31 32 33 34 35 36 37 38 39 40 41 42 43 44 45 46 47 48 49 50
000
ASUS41 KALY 250710
RWRALY

NEW YORK STATE HOURLY WEATHER ROUNDUP
NATIONAL WEATHER SERVICE ALBANY NY
300 AM EDT WED APR 25 2018

NOTE: "FAIR" INDICATES FEW OR NO CLOUDS BELOW 12,000 FEET WITH NO
SIGNIFICANT WEATHER AND/OR NO OBSTRUCTIONS TO VISIBILITY.

NYZ032-033-038>043-046>054-057>066-NYZ062>081-082-084-250800-
EAST


CITY           SKY/WX    TMP DP  RH WIND       PRES   REMARKS
ALBANY         LGT RAIN  50  45  83 CALM      30.14F
GLENS FALLS    LGT RAIN  50  45  83 SW6       30.13F
POUGHKEEPSIE   LGT RAIN  49  46  90 N5        30.08F
NEWBURGH       LGT RAIN  48  48 100 CALM      30.09F
MONTGOMERY     LGT RAIN  48  46  93 N8        30.07F
WHITE PLAINS   LGT RAIN  50  48  93 E7        30.06F
ISLIP          LGT RAIN  53  51  93 SE15G24   30.08F
NEW YORK CITY  LGT RAIN  50  47  89 NE10      30.05F
CENTRAL PARK   LGT RAIN  53  50  89 E5        30.08F
$$

NYZ005>009-017-018-044>046-055-056-250800-
CENTRAL


CITY           SKY/WX    TMP DP  RH WIND       PRES   REMARKS
FULTON         LGT RAIN  51  47  86 CALM      30.04F
SYRACUSE       LGT RAIN  50  50 100 E5        30.05F
ROME           LGT RAIN  50  48  93 E3        30.09F
ELMIRA         LGT RAIN  51  49  92 E6        29.99F
BINGHAMTON     LGT RAIN  45  44  97 E9        30.01F
MONTICELLO     LGT RAIN  44  43  96 E7        30.06F
$$

NYZ026>034-041>043-087-250800-
NORTH


CITY           SKY/WX    TMP DP  RH WIND       PRES   REMARKS
WATERTOWN      CLOUDY    50  40  68 SW3       30.04S
FORT DRUM      NOT AVBL
OGDENSBURG     FAIR      56  39  53 SW6       30.04F
MASSENA        CLOUDY    58  39  49 S7        30.04F
SARANAC LAKE   CLOUDY    48  33  56 SW5       30.05F
PLATTSBURGH    FAIR      52  36  54 S10       30.05F
$$

NYZ001>004-010>016-019>021-085-250800-
WEST


CITY           SKY/WX    TMP DP  RH WIND       PRES   REMARKS
NIAGARA FALLS  LGT RAIN  51  46  83 E8        29.95F
BUFFALO        CLOUDY    49  48  97 E3        29.96F
DUNKIRK        LGT RAIN  47  47 100 NE7       29.93F
JAMESTOWN      CLOUDY    47  45  93 SE7       29.92
WELLSVILLE     LGT RAIN  47  46  97 SE8       29.96F FOG
ROCHESTER      LGT RAIN  51  49  92 SE10      30.00F
PENN YAN       CLOUDY    49  46  90 CALM      30.00F
$$

             KEY
       WCI = WIND CHILL INDEX
       VSB = VISIBILITY
       HX  = HEAT INDEX
$$



USA.gov is the U.S. government's official web portal to all federal, state and local government web resources and services.